Tracking 33877 objects as of 19-Apr-2026
HD Live streaming from Space Station
objects crossing your sky now

NAVSTAR 79 (USA 304)

Track NAVSTAR 79 (USA 304) now!
NAVSTAR 79 (USA 304) is classified as:


NORAD ID: 45854
Int'l Code: 2020-041A
Perigee: 20,025.1 km
Apogee: 20,354.3 km
Inclination: 56.6 °
Period: 718.0 minutes
Semi major axis: 26560 km
RCS: Unknown
Launch date: June 30, 2020
Source: United States (US)
Launch site: AIR FORCE EASTERN TEST RANGE (AFETR)
PRN: 23
Your satellite tracking list
Your tracking list is empty




NASA's NSSDC Master Catalog

Two Line Element Set (TLE):
1 45854U 20041A   26107.08901795 -.00000067  00000-0  00000-0 0  9992
2 45854  56.6327  31.3151 0061967 205.0356 286.0911  2.00559697 42816
Source of the keplerian elements: AFSPC